This demonstration page uses our WeatherBlox Daily Observations layout. Learn more.

Left ArrowRight Arrow

Hourly Observations for March 18, 2020

Temp ( °F °C ) Dew Point ( °F °C ) Humidity (%) Winds ( mph kmh ) Pressure ( in mb ) Visibility ( mi km ) Precip ( " mm )
12:53 am 00:53 Clear 36 2.2 32 undefined 86 86 N N/A 30.34 1027 10 16.0934 N/A
1:53 am 01:53 Clear 36 2.2 33 0.6 89 89 N N/A 30.35 1028 10 16.0934 N/A
2:53 am 02:53 Clear 35 1.7 32 undefined 89 89 N N/A 30.36 1028 10 16.0934 N/A
3:53 am 03:53 Clear 35 1.7 33 0.6 93 93 N N/A 30.34 1027 10 16.0934 N/A
4:53 am 04:53 Clear 35 1.7 32 undefined 89 89 ESE 5 7 30.3 1026 10 16.0934 N/A
5:53 am 05:53 Clear 34 1.1 31 -0.6 89 89 E 5 7 30.3 1026 10 16.0934 N/A
6:53 am 06:53 Clear 36 2.2 33 0.6 89 89 E 6 9 30.28 1026 10 16.0934 N/A
7:50 am 07:50 Mostly Cloudy 37 3 34 1 87 87 E 5 7 30.29 1026 10 16.0934 N/A
7:53 am 07:53 Mostly Cloudy 37 2.8 34 1.1 89 89 E 6 9 30.27 1025 10 16.0934 N/A
8:48 am 08:48 Cloudy 41 5 37 3 87 87 ESE 3 6 30.29 1026 10 16.0934 N/A
8:53 am 08:53 Cloudy 41 5 37 2.8 86 86 ESE 5 7 30.27 1025 10 16.0934 N/A
9:53 am 09:53 Cloudy 43 6.1 38 3.3 82 82 N N/A 30.27 1025 10 16.0934 0.001 0.001
10:06 am 10:06 Cloudy with Light Rain 43 6.1 39 3.9 86 86 N N/A 30.28 1025 2 3.21868 0.03 0.762
10:23 am 10:23 Cloudy with Rain 43 6.1 40 4.4 89 89 ESE 5 7 30.27 1025 2.5 4.02335 0.06 1.524
10:31 am 10:31 Cloudy with Light Rain 44 6.7 41 5 89 89 E 3 6 30.27 1025 4 6.43736 0.06 1.524
10:53 am 10:53 Cloudy with Light Rain 44 6.7 41 5 89 89 E 6 9 30.25 1024 7 11.26538 0.06 1.524
11:22 am 11:22 Cloudy 44 6.7 41 5 89 89 E 5 7 30.24 1024 8 12.87472 0.001 0.001
12:53 pm 12:53 Cloudy with Light Rain 47 8.3 44 6.7 90 90 ESE 3 6 30.18 1022 2.5 4.02335 0.001 0.001
1:29 pm 13:29 Cloudy with Rain 48 8.9 46 7.8 93 93 ESE 5 7 30.16 1021 3 4.82802 0.05 1.27
1:53 pm 13:53 Cloudy with Light Rain 48 8.9 46 7.8 93 93 ESE 3 6 30.14 1021 3 4.82802 0.06 1.524
2:07 pm 14:07 Cloudy with Rain 48 8.9 46 7.8 93 93 N N/A 30.14 1021 1.75 2.816345 0.05 1.27
2:14 pm 14:14 Cloudy with Rain 48 8.9 46 7.8 93 93 ESE 3 6 30.13 1020 2 3.21868 0.07 1.778
2:25 pm 14:25 Cloudy with Heavy Rain 48 8.9 47 8.3 96 96 N N/A 30.13 1020 1.5 2.41401 0.13 3.302
2:40 pm 14:40 Cloudy with Rain 48 8.9 47 8.3 96 96 N N/A 30.12 1020 2 3.21868 0.19 4.826
2:45 pm 14:45 Cloudy with Rain 48 8.9 47 8.3 96 96 E 5 7 30.1 1019 1.75 2.816345 0.21 5.334
2:53 pm 14:53 Cloudy with Light Rain 49 9.4 47 8.3 93 93 E 5 7 30.1 1019 2.5 4.02335 0.22 5.588
2:59 pm 14:59 Cloudy with Rain 49 9.4 47 8.3 93 93 N N/A 30.11 1020 1.75 2.816345 0.05 1.27
3:02 pm 15:02 Cloudy with Heavy Rain 49 9.4 47 8.3 93 93 N N/A 30.11 1020 1.5 2.41401 0.06 1.524
3:27 pm 15:27 Cloudy with Rain 49 9.4 48 8.9 97 97 N N/A 30.09 1019 2 3.21868 0.15 3.81
3:45 pm 15:45 Cloudy with Heavy Rain 49 9.4 48 8.9 97 97 N N/A 30.09 1019 1.5 2.41401 0.21 5.334
3:53 pm 15:53 Cloudy with Heavy Rain 49 9.4 48 8.9 97 97 E 5 7 30.08 1019 1.5 2.41401 0.26 6.604
4:19 pm 16:19 Cloudy with Rain 50 10 49 9.4 96 96 ESE 3 6 30.06 1018 1.75 2.816345 0.15 3.81
4:26 pm 16:26 Cloudy with Rain 50 10 49 9.4 96 96 E 5 7 30.05 1018 2 3.21868 0.17 4.318
4:51 pm 16:51 Cloudy with Light Rain 52 11 50 10 94 94 ESE 5 7 30.04 1017 3 4.82802 0.19 4.826
4:53 pm 16:53 Cloudy with Light Rain 51 10.6 50 10 96 96 ESE 5 7 30.03 1017 3 4.82802 0.19 4.826
4:58 pm 16:58 Cloudy with Light Rain 51 10.6 50 10 96 96 ESE 5 7 30.03 1017 4 6.43736 0.001 0.001
5:05 pm 17:05 Cloudy with Light Rain 51 10.6 50 10 96 96 VRB 5 7 30.03 1017 5 8.0467 0.001 0.001
5:18 pm 17:18 Cloudy with Light Rain 51 10.6 51 10.6 100 100 N N/A 30.02 1016 2.5 4.02335 0.02 0.508
5:27 pm 17:27 Cloudy with Rain 52 11.1 51 10.6 97 97 N N/A 30.02 1016 1.5 2.41401 0.05 1.27
5:36 pm 17:36 Cloudy with Light Rain 52 11.1 51 10.6 97 97 N N/A 30.01 1016 1.5 2.41401 0.08 2.032
5:53 pm 17:53 Cloudy with Heavy Rain 52 11.1 51 10.6 97 97 N N/A 30 1016 1.5 2.41401 0.15 3.81
5:59 pm 17:59 Cloudy with Light Rain 52 11.1 51 10.6 97 97 N N/A 30.01 1016 2 3.21868 0.01 0.254
6:02 pm 18:02 Cloudy with Rain 52 11.1 51 10.6 97 97 N N/A 30.01 1016 1.5 2.41401 0.02 0.508
6:11 pm 18:11 Cloudy with Light Rain 52 11.1 51 10.6 97 97 N N/A 30.01 1016 1.75 2.816345 0.03 0.762
6:18 pm 18:18 Cloudy with Light Rain 52 11.1 51 10.6 97 97 WNW 8 13 30.01 1016 2.5 4.02335 0.03 0.762
6:30 pm 18:30 Cloudy with Light Rain 53 11.7 52 11.1 96 96 N N/A 30 1016 3 4.82802 0.04 1.016
6:39 pm 18:39 Cloudy with Light Rain 52 11.1 51 10.6 97 97 N N/A 30.01 1016 2.5 4.02335 0.05 1.27
6:43 pm 18:43 Cloudy with Light Rain 52 11.1 51 10.6 97 97 NW 6 9 30.01 1016 3 4.82802 0.05 1.27
6:51 pm 18:51 Cloudy with Light Rain 54 12 52 11 94 94 N N/A 30 1016 4 6.43736 0.05 1.27
6:53 pm 18:53 Cloudy with Light Rain 53 11.7 52 11.1 96 96 N N/A 30 1016 5 8.0467 0.05 1.27
7:40 pm 19:40 Cloudy with Mist and Fog 53 11.7 53 11.7 100 100 N N/A 30 1016 1.75 2.816345 0.001 0.001
7:53 pm 19:53 Cloudy with Mist and Fog 53 11.7 52 11.1 96 96 N N/A 30.01 1016 1 1.60934 0.001 0.001
8:33 pm 20:33 Cloudy with Light Rain 53 11.7 52 11.1 96 96 N N/A 30.01 1016 2 3.21868 0.01 0.254
8:43 pm 20:43 Cloudy with Light Rain 53 11.7 53 11.7 100 100 VRB 3 6 30 1016 4 6.43736 0.01 0.254
8:53 pm 20:53 Cloudy with Light Rain 54 12.2 53 11.7 97 97 N N/A 30.01 1016 7 11.26538 0.01 0.254
9:53 pm 21:53 Cloudy with Mist and Fog 56 13.3 55 12.8 97 97 WNW 5 7 30.02 1017 5 8.0467 0.01 0.254
9:56 pm 21:56 Cloudy with Mist and Fog 56 13.3 55 12.8 97 97 W 3 6 30.02 1017 5 8.0467 N/A
10:00 pm 22:00 Cloudy with Mist and Fog 56 13.3 55 12.8 97 97 W 3 6 30.02 1017 5 8.0467 N/A
10:12 pm 22:12 Cloudy with Light Rain 56 13.3 55 12.8 97 97 W 5 7 30.02 1017 3 4.82802 0.01 0.254
10:19 pm 22:19 Cloudy with Light Rain 57 13.9 56 13.3 96 96 W 5 7 30.03 1017 2 3.21868 0.02 0.508
10:23 pm 22:23 Cloudy with Light Rain 57 13.9 56 13.3 96 96 W 6 9 30.03 1017 3 4.82802 0.02 0.508
10:35 pm 22:35 Cloudy with Light Rain 58 14.4 57 13.9 97 97 W 5 7 30.03 1017 4 6.43736 0.02 0.508
10:53 pm 22:53 Cloudy with Light Rain 58 14.4 57 13.9 97 97 WSW 3 6 30.04 1017 3 4.82802 0.03 0.762
11:03 pm 23:03 Cloudy with Mist and Fog 57 13.9 57 13.9 100 100 WSW 3 6 30.04 1017 5 8.0467 0.001 0.001
11:53 pm 23:53 Cloudy 57 13.9 56 13.3 96 96 W 5 7 30.07 1018 8 12.87472 0.001 0.001

Powered by AerisWeather